Terminal Aerodrome Forecast
Issued by NWS Wilmington, OH

Current Version | Previous Version | Graphics & Text | Print | Product List | Glossary On
Versions: 1 2 3 4 5 6 7 8 9 10 11 12 13 14 15 16 17 18 19 20 21 22 23 24 25
000
FTUS41 KILN 201514 AAB
TAFCVG
TAF AMD
KCVG 201514Z 2015/2118 21007KT P6SM BKN012 OVC022
     FM202100 20007KT P6SM BKN035
     FM210600 17005KT P6SM BKN008
     FM211500 18007KT P6SM BKN012=

USA.gov is the U.S. government's official web portal to all federal, state and local government web resources and services.